This is the latest recevied weather packets stored in our database for station/object W8AN. If no packets are shown the sender has not sent any weather packets the latest 10 day(s).
| Time | Temp. | Humidity | Pressure | Rain* | Wind** | Luminosity | Snow |
|---|---|---|---|---|---|---|---|
| 1777486634 | 11.11° C | 78% | 4265 hPa | 0 mm | - | 339 W/m² | - |
| 1777486332 | 11.67° C | 78% | 4265.1 hPa | 0 mm | - | 214 W/m² | - |
| 1777486029 | 11.67° C | 78% | 4265.2 hPa | 0 mm | - | 264 W/m² | - |
| 1777485726 | 11.67° C | 78% | 4265.2 hPa | 0 mm | - | 258 W/m² | - |
| 1777485420 | 11.67° C | 77% | 4265.3 hPa | 0 mm | - | 289 W/m² | - |
| 1777485116 | 11.67° C | 78% | 4265.1 hPa | 0 mm | - | 276 W/m² | - |
| 1777484814 | 11.67° C | 78% | 4265.2 hPa | 0 mm | - | 250 W/m² | - |
| 1777484510 | 11.67° C | 78% | 4265.1 hPa | 0 mm | - | 265 W/m² | - |
| 1777484207 | 11.67° C | 78% | 4265.4 hPa | 0 mm | - | 234 W/m² | - |
| 1777483903 | 11.67° C | 79% | 4265 hPa | 0 mm | - | 233 W/m² | - |
| 1777483599 | 11.11° C | 79% | 4265.2 hPa | 0 mm | - | 192 W/m² | - |
| 1777483294 | 11.67° C | 79% | 4265.4 hPa | 0 mm | - | 223 W/m² | - |
| 1777482991 | 11.11° C | 79% | 4265.5 hPa | 0 mm | - | 196 W/m² | - |
| 1777482687 | 11.67° C | 78% | 4265.4 hPa | 0 mm | - | 193 W/m² | - |
| 1777482384 | 11.67° C | 79% | 4265.3 hPa | 0 mm | - | 359 W/m² | - |
| 1777482082 | 11.67° C | 78% | 4265.5 hPa | 0 mm | - | 366 W/m² | - |
| 1777481780 | 11.67° C | 79% | 4265.8 hPa | 0 mm | - | 224 W/m² | - |
| 1777481476 | 11.67° C | 79% | 4265.7 hPa | 0 mm | - | 230 W/m² | - |
| 1777481172 | 11.11° C | 79% | 4265.7 hPa | 0 mm | - | 225 W/m² | - |
| 1777480869 | 11.11° C | 80% | 4265.4 hPa | 0 mm | - | 149 W/m² | - |
| 1777480566 | 11.67° C | 79% | 4265.5 hPa | 0 mm | - | 168 W/m² | - |
| 1777480263 | 11.67° C | 80% | 4265.4 hPa | 0 mm | - | 261 W/m² | - |
| 1777479959 | 11.11° C | 80% | 4265.7 hPa | 0 mm | - | 163 W/m² | - |
| 1777479656 | 11.11° C | 80% | 4265.8 hPa | 0 mm | - | 132 W/m² | - |
| 1777479354 | 11.11° C | 81% | 4265.9 hPa | 0 mm | - | 94 W/m² | - |
* Rain latest hour (hover to see other rain measurements)
** Current wind speed in m/s (hover to see current wind gust speed)